Lexington Weather

Lexington, Massachusetts, USA

26°F
12/12/2019 5:03pm 
  • Lexington Conditions: Partly cloudy
  • Temperature: 26.2°F / -3.2°CColder 2.0°F than last hour.
  • Dew Point: 19.8°F 
  • Relative Humidity: 76%Increased 6.0% since last hour.
  • Wind: Wind from WSW WSW 2 mph, 10-min avg: 1 mph, gust: 2 mph
  • Barometer: 30.66 in Steady
  • Visibility: 10 miles
  • Snow Today: 0.0 in
  •   

Regional Weather Roundup
for Boston / Norton, MA

        
000
ASUS41 KBOX 112001
RWRBOX

REGIONAL WEATHER ROUNDUP
NATIONAL WEATHER SERVICE BOSTON/NORTON MA
300 PM EST WED DEC 11 2019

NOTE:  "FAIR" INDICATES FEW OR NO CLOUDS BELOW 12,000 FEET WITH NO 
SIGNIFICANT WEATHER AND/OR OBSTRUCTIONS TO VISIBILITY.

MAZALL-112100-
EASTERN MASSACHUSETTS
  
CITY           SKY/WX    TMP DP  RH WIND       PRES   REMARKS
BOSTON         FAIR      35  17  47 SW13      30.20R WCI  26          
BEVERLY        FAIR      32  24  72 W3        30.18S                  
LAWRENCE       FAIR      32  21  64 SW6       30.19S WCI  26          
BEDFORD        FAIR      33  21  61 W3        30.18R                  
BLUE HILL        N/A     29  25  85 W10       30.15S WCI  20          
NORWOOD        FAIR      35  22  58 W12       30.20R WCI  27          
MARSHFIELD     NOT AVBL                                               
PLYMOUTH       FAIR      31  26  82 W6        30.20R WCI  25          
TAUNTON        FAIR      33  25  72 W5        30.21R WCI  29          
NEW BEDFORD    FAIR      32  25  75 W6        30.21R WCI  26          
$$

MAZALL-112100-
CAPE COD AND THE ISLANDS
  
CITY           SKY/WX    TMP DP  RH WIND       PRES   REMARKS
FALMOUTH       PTCLDY    30  25  80 W7        30.20R WCI  23          
HYANNIS        NOT AVBL                                               
CHATHAM        MOCLDY    33  30  88 VRB3      30.20R                  
PROVINCETOWN   CLOUDY    33  28  81 W9        30.20R WCI  25          
NANTUCKET      MOCLDY    35  32  88 NW6       30.20R WCI  30          
MARTHAS VNYRD  FAIR      32  25  75 NW6       30.21R WCI  26          
$$
 
MAZALL-112100-
CENTRAL AND WESTERN MASSACHUSETTS
  
CITY           SKY/WX    TMP DP  RH WIND       PRES   REMARKS
WORCESTER      FAIR      28  18  66 SW10      30.14S WCI  19          
FITCHBURG      FAIR      32  17  54 W3        30.17F                  
ORANGE         FAIR      34  12  40 W9        30.16S WCI  27          
SPRINGFIELD    NOT AVBL                                               
WESTFIELD      FAIR      33  18  53 SW9       30.19F WCI  25          
NORTH ADAMS    CLOUDY    31  12  45 NW3       30.16S                  
PITTSFIELD     FAIR      29  16  58 S7        30.12S WCI  22          
$$
 
RIZALL-112100-
RHODE ISLAND
  
CITY           SKY/WX    TMP DP  RH WIND       PRES   REMARKS
PROVIDENCE     FAIR      34  20  56 NW7       30.22R WCI  28          
NEWPORT        FAIR      34  22  61 NW8       30.21R WCI  27          
BLOCK ISLAND   CLOUDY    32  24  72 NW7       30.24R WCI  26          
SMITHFIELD     FAIR      32  22  66 W7        30.20R WCI  26          
WESTERLY       FAIR      36  20  52 NW5       30.24R                  
$$
 
CTZALL-112100-
CONNECTICUT
  
CITY           SKY/WX    TMP DP  RH WIND       PRES   REMARKS
BRADLEY INTL   FAIR      32  20  61 SW6       30.20F WCI  26          
HARTFORD       FAIR      33  20  58 S3        30.23S                  
BRIDGEPORT     FAIR      36  27  69 SW8       30.25S WCI  30          
DANBURY        PTSUNNY   31  25  78 SW6       30.23R WCI  25          
GROTON         NOT AVBL                                               
NEW HAVEN      FAIR      37  26  64 SW6       30.24S                  
CHESTER        FAIR      34  23  64 VRB6      30.22R WCI  29          
MERIDEN        FAIR      33  23  66 S6        30.23S WCI  28          
WILLIMANTIC    FAIR      31  21  66 W3        30.23R                  
OXFORD         PTSUNNY   33  26  75 S6        30.21S WCI  28          
$$

MEZ002-015-021-024-NHZ003-005-008-011-012-014-VTZ005-008-112100-
NORTHERN NEW ENGLAND
  
CITY           SKY/WX    TMP DP  RH WIND       PRES   REMARKS
PORTLAND ME    FAIR      33  18  53 SE8       30.18R WCI  26          
BANGOR ME      FAIR      28   8  43 VRB3      30.17R                  
CONCORD NH     FAIR      33  12  41 S5        30.14F WCI  29          
MANCHESTER NH  FAIR      33  15  47 SW7       30.14F WCI  27          
NASHUA NH      FAIR      31  22  69 CALM      30.17F                  
PORTSMOUTH NH  NOT AVBL                                               
JAFFREY NH     FAIR      29  15  56 CALM      30.11F                  
KEENE NH       FAIR      34  11  38 W9        30.15S WCI  27          
BURLINGTON VT  MOCLDY    31  10  41 S13       30.10F WCI  21          
MT. WASHINGTON PTCLDY     3  -8  60 SW17G23     N/A  WCI -17          
$$

NYZ052-076-112100-
EASTERN NEW YORK
  
CITY           SKY/WX    TMP DP  RH WIND       PRES   REMARKS
ALBANY         FAIR      34  14  43 S8        30.20R WCI  27          
NEW YORK CITY  CLOUDY    38  25  59 W20G26    30.25S WCI  28          
$$
 
ANZALL-112100-
MARINE OBSERVATIONS
  
STATION/POSITION TIME  TEMP    WIND        PRES    VSBY  WAVE
                       AIR SEA DIR/SP/G                  HT/PER
                 (UTC) (F)     (DEG/KT/KT) (MB)    (MI)  (FT/S)
BOSTON BUOY      NOT AVBL
BUZZARDS BAY     1900   31     320/ 10/ 11 1023.3F
NANTUCKET SOUND  NOT AVBL
MASS BAY-STELLWA 1904   32 46  340/  6/ 10 1020.6S  1 7/8  3/11
ISLE OF SHOALS   1900   31     290/  6/  7 1021.4F
S OF BLOCK IS    1930      53                N/A           6/ 9
$$

......................KEY.........................
  SKY/WX - SKY CONDITION/PRESENT WEATHER
  TMP    - TEMPERATURE IN FAHRENHEIT
  DWPT   - DEWPOINT IN FAHRENHEIT
  RH     - RELATIVE HUMIDITY IN PERCENT
  WIND   - DIRECTION AND SPEED IN MPH
  PRES   - MEAN SEA LEVEL PRESSURE IN INCHES OF HG
  WCI    - WIND CHILL INDEX
  VSB    - VISIBILITY IN MILES
  HX     - HEAT INDEX
  TC     - TEMPERATURE IN CELSIUS
  VRB    - VARIABLE WIND DIRECTION
  N/A    - NOT AVAILABLE
  
      

Other recent Regional Weather Roundups

Thu Dec 12, 5:00pm

Thu Dec 12, 4:10pm

Thu Dec 12, 4:01pm

Thu Dec 12, 3:10pm

Thu Dec 12, 3:00pm

Thu Dec 12, 2:10pm

Thu Dec 12, 2:01pm

Thu Dec 12, 1:10pm

Thu Dec 12, 1:00pm

Thu Dec 12, 12:10pm

Thu Dec 12, 12:00pm

Thu Dec 12, 11:10am

Thu Dec 12, 11:00am

Thu Dec 12, 10:10am

Thu Dec 12, 8:10am

Thu Dec 12, 8:00am

Thu Dec 12, 7:10am

Thu Dec 12, 7:00am

Thu Dec 12, 6:10am

Thu Dec 12, 6:00am

Thu Dec 12, 5:10am

Thu Dec 12, 5:00am

Thu Dec 12, 4:10am

Thu Dec 12, 4:00am

Thu Dec 12, 3:10am

Thu Dec 12, 3:00am

Thu Dec 12, 2:10am

Thu Dec 12, 2:00am

Thu Dec 12, 1:10am

Thu Dec 12, 1:00am

Thu Dec 12, 12:10am

Thu Dec 12, 12:00am

Wed Dec 11, 11:10pm

Wed Dec 11, 11:00pm

Wed Dec 11, 10:10pm

Wed Dec 11, 10:00pm

Wed Dec 11, 9:10pm

Wed Dec 11, 9:00pm

Wed Dec 11, 8:10pm

Wed Dec 11, 8:00pm

Wed Dec 11, 7:10pm

Wed Dec 11, 7:00pm

Wed Dec 11, 6:10pm

Wed Dec 11, 6:00pm

Wed Dec 11, 5:10pm

Wed Dec 11, 5:01pm

Wed Dec 11, 4:10pm

Wed Dec 11, 4:00pm

Wed Dec 11, 3:10pm

Wed Dec 11, 2:10pm

Wed Dec 11, 2:00pm

Wed Dec 11, 1:10pm

Wed Dec 11, 1:00pm

Wed Dec 11, 12:10pm

Wed Dec 11, 12:00pm

Wed Dec 11, 11:10am

Wed Dec 11, 11:00am

Wed Dec 11, 10:10am

Wed Dec 11, 10:00am

Wed Dec 11, 9:10am

Wed Dec 11, 9:00am

Wed Dec 11, 8:10am

Wed Dec 11, 8:00am

Wed Dec 11, 7:10am

Wed Dec 11, 7:00am

Wed Dec 11, 6:10am

Wed Dec 11, 6:00am

Wed Dec 11, 5:10am

Wed Dec 11, 5:00am

Wed Dec 11, 4:10am

Wed Dec 11, 4:00am

Wed Dec 11, 3:10am

Wed Dec 11, 3:01am

Wed Dec 11, 2:10am

Wed Dec 11, 2:01am

Wed Dec 11, 1:10am

Wed Dec 11, 1:00am

Wed Dec 11, 12:10am

Wed Dec 11, 12:00am

Tue Dec 10, 11:10pm

Tue Dec 10, 11:00pm

Tue Dec 10, 10:10pm

Tue Dec 10, 10:00pm

Tue Dec 10, 9:10pm

Tue Dec 10, 9:01pm

Tue Dec 10, 8:10pm

Tue Dec 10, 8:00pm

Tue Dec 10, 7:10pm

Tue Dec 10, 7:01pm

Tue Dec 10, 6:10pm

Tue Dec 10, 6:01pm

Tue Dec 10, 5:10pm

Tue Dec 10, 5:00pm

Tue Dec 10, 4:10pm

Tue Dec 10, 4:01pm

Tue Dec 10, 3:10pm

Tue Dec 10, 3:01pm

Tue Dec 10, 2:10pm

Tue Dec 10, 2:01pm

Tue Dec 10, 1:10pm

Tue Dec 10, 1:00pm

Tue Dec 10, 12:10pm

Tue Dec 10, 12:00pm

Tue Dec 10, 11:10am

Tue Dec 10, 11:00am

Tue Dec 10, 10:10am

Tue Dec 10, 10:00am

Tue Dec 10, 9:10am

Tue Dec 10, 9:01am

Tue Dec 10, 8:10am

Tue Dec 10, 8:00am

Tue Dec 10, 7:10am

Tue Dec 10, 7:00am

Tue Dec 10, 6:10am

Tue Dec 10, 6:00am

Tue Dec 10, 5:10am

Tue Dec 10, 5:00am

Tue Dec 10, 4:10am

Tue Dec 10, 4:00am

Tue Dec 10, 3:10am

Tue Dec 10, 3:00am

Tue Dec 10, 2:10am

Tue Dec 10, 2:01am

Tue Dec 10, 1:10am

Tue Dec 10, 1:00am

Tue Dec 10, 12:10am

Tue Dec 10, 12:01am

Mon Dec 9, 11:10pm

Mon Dec 9, 11:01pm

Mon Dec 9, 10:10pm

Mon Dec 9, 10:00pm

Mon Dec 9, 9:10pm

Mon Dec 9, 9:01pm

Mon Dec 9, 8:10pm

Mon Dec 9, 8:01pm

Mon Dec 9, 7:10pm

Mon Dec 9, 7:00pm

Mon Dec 9, 6:10pm

Mon Dec 9, 6:00pm

Mon Dec 9, 5:10pm

Meta data:

ID: c914e65b-08c0-4f51-89f8-83e4c5e5c3a1
Link: https://api.weather.gov/products/c914e65b-08c0-4f51-89f8-83e4c5e5c3a1